Location: ?????
(31.8092°N, 35.2590°E)
Time: 20:11:25
(UTC+00:00)

Meteor 2-10 Rocket - Pass Details

Date: 20 June 2021
Orbit: 733 x 885 km, 81.2° (Epoch: 01 August)

Event Time Altitude Azimuth Distance (km) Brightness Sun altitude
Rises 19:55:23 0° 354° (N) 3,181 7.7 -29.3°
Reaches altitude 10° 19:57:44 10° 356° (N) 2,246 6.7 -29.5°
Enters shadow 20:01:29 50° 13° (NNE) 932 4.1 -29.9°
